TimeEDT,TemperatureF,Dew PointF,Humidity,Sea Level PressureIn,VisibilityMPH,Wind Direction,Wind SpeedMPH,Gust SpeedMPH,PrecipitationIn,Events,Conditions,WindDirDegrees,DateUTC
12:14 AM,60.4,59.9,98,30.15,10.0,Calm,Calm,-,N/A,,Clear,0,2013-07-13 04:14:00
12:35 AM,59.9,59.2,97,30.16,10.0,Calm,Calm,-,N/A,,Clear,0,2013-07-13 04:35:00
12:54 AM,59.9,59.4,98,30.16,10.0,Calm,Calm,-,N/A,,Clear,0,2013-07-13 04:54:00
1:13 AM,60.1,59.5,98,30.16,10.0,Calm,Calm,-,N/A,,Clear,0,2013-07-13 05:13:00
1:34 AM,61.3,60.8,98,30.16,10.0,Calm,Calm,-,N/A,,Clear,0,2013-07-13 05:34:00
1:53 AM,64.0,62.2,94,30.16,10.0,East,4.6,-,N/A,,Clear,100,2013-07-13 05:53:00
2:14 AM,62.6,60.8,94,30.17,10.0,East,3.5,-,N/A,,Clear,80,2013-07-13 06:14:00
2:34 AM,61.5,59.9,94,30.16,10.0,East,3.5,-,N/A,,Clear,90,2013-07-13 06:34:00
2:53 AM,61.3,59.9,95,30.17,10.0,Calm,Calm,-,N/A,,Clear,0,2013-07-13 06:53:00
3:14 AM,61.3,59.9,95,30.17,10.0,Calm,Calm,-,N/A,,Clear,0,2013-07-13 07:14:00
3:34 AM,59.5,58.3,96,30.17,10.0,East,3.5,-,N/A,,Clear,80,2013-07-13 07:34:00
3:53 AM,61.3,59.9,95,30.17,10.0,Calm,Calm,-,N/A,,Clear,0,2013-07-13 07:53:00
4:14 AM,58.5,57.7,97,30.19,10.0,Calm,Calm,-,N/A,,Clear,0,2013-07-13 08:14:00
4:34 AM,57.2,56.7,98,30.18,4.0,Calm,Calm,-,N/A,,Clear,0,2013-07-13 08:34:00
4:53 AM,57.2,56.8,99,30.18,4.0,Calm,Calm,-,N/A,,Clear,0,2013-07-13 08:53:00
5:14 AM,56.3,56.1,99,30.19,4.0,Calm,Calm,-,N/A,,Clear,0,2013-07-13 09:14:00
5:33 AM,56.3,56.1,99,30.19,7.0,Calm,Calm,-,N/A,,Clear,0,2013-07-13 09:33:00
5:54 AM,55.4,55.0,99,30.19,7.0,Calm,Calm,-,N/A,,Clear,0,2013-07-13 09:54:00
6:14 AM,54.9,54.9,100,30.19,3.0,Calm,Calm,-,N/A,,Clear,0,2013-07-13 10:14:00
6:33 AM,55.4,55.0,99,30.20,4.0,Calm,Calm,-,N/A,,Clear,0,2013-07-13 10:33:00
6:54 AM,55.4,55.2,99,30.20,7.0,NW,3.5,-,N/A,,Clear,310,2013-07-13 10:54:00
7:14 AM,57.2,57.2,100,30.20,10.0,Calm,Calm,-,N/A,,Clear,0,2013-07-13 11:14:00
7:33 AM,59.2,59.0,99,30.20,10.0,Calm,Calm,-,N/A,,Clear,0,2013-07-13 11:33:00
7:54 AM,61.3,60.8,98,30.20,10.0,Calm,Calm,-,N/A,,Clear,0,2013-07-13 11:54:00
8:13 AM,64.2,62.1,93,30.20,10.0,Calm,Calm,-,N/A,,Clear,0,2013-07-13 12:13:00
8:34 AM,66.6,62.1,85,30.21,10.0,Calm,Calm,-,N/A,,Clear,0,2013-07-13 12:34:00
8:54 AM,68.9,61.7,78,30.21,10.0,Calm,Calm,-,N/A,,Clear,0,2013-07-13 12:54:00
9:13 AM,71.8,62.4,72,30.22,10.0,Calm,Calm,-,N/A,,Clear,0,2013-07-13 13:13:00
9:34 AM,73.6,62.8,69,30.21,10.0,SSW,4.6,-,N/A,,Clear,200,2013-07-13 13:34:00
9:54 AM,74.5,62.1,65,30.21,10.0,South,6.9,-,N/A,,Clear,180,2013-07-13 13:54:00
10:13 AM,75.4,62.4,64,30.22,10.0,SSW,4.6,-,N/A,,Clear,200,2013-07-13 14:13:00
10:34 AM,77.2,62.4,60,30.21,10.0,South,6.9,-,N/A,,Clear,190,2013-07-13 14:34:00
10:54 AM,77.2,62.2,60,30.22,10.0,SE,5.8,-,N/A,,Clear,140,2013-07-13 14:54:00
11:14 AM,78.4,60.3,53,30.22,10.0,SSE,3.5,-,N/A,,Clear,160,2013-07-13 15:14:00
11:34 AM,78.4,61.2,55,30.22,10.0,SE,4.6,-,N/A,,Clear,130,2013-07-13 15:34:00
11:54 AM,79.2,61.2,54,30.22,10.0,SSE,3.5,-,N/A,,Clear,160,2013-07-13 15:54:00
12:14 PM,80.4,61.9,53,30.21,10.0,SSE,5.8,-,N/A,,Scattered Clouds,150,2013-07-13 16:14:00
12:34 PM,80.6,60.4,50,30.21,10.0,Calm,Calm,-,N/A,,Scattered Clouds,0,2013-07-13 16:34:00
12:54 PM,80.8,60.6,50,30.21,10.0,ESE,5.8,-,N/A,,Scattered Clouds,110,2013-07-13 16:54:00
1:14 PM,79.2,60.3,52,30.21,10.0,West,3.5,-,N/A,,Mostly Cloudy,260,2013-07-13 17:14:00
1:34 PM,81.1,60.3,49,30.21,10.0,Calm,Calm,-,N/A,,Overcast,0,2013-07-13 17:34:00
1:53 PM,80.6,59.0,48,30.20,10.0,East,5.8,-,N/A,,Overcast,80,2013-07-13 17:53:00
2:14 PM,82.2,60.1,47,30.20,10.0,East,4.6,-,N/A,,Mostly Cloudy,90,2013-07-13 18:14:00
2:34 PM,81.0,58.5,46,30.20,10.0,ENE,5.8,-,N/A,,Scattered Clouds,60,2013-07-13 18:34:00
2:53 PM,82.0,59.4,46,30.20,10.0,NE,3.5,-,N/A,,Scattered Clouds,40,2013-07-13 18:53:00
3:14 PM,83.3,55.9,39,30.20,10.0,Calm,Calm,-,N/A,,Scattered Clouds,0,2013-07-13 19:14:00
3:34 PM,83.8,57.6,41,30.20,10.0,East,6.9,-,N/A,,Scattered Clouds,80,2013-07-13 19:34:00
3:54 PM,84.2,56.3,38,30.19,10.0,ESE,4.6,-,N/A,,Scattered Clouds,110,2013-07-13 19:54:00
4:14 PM,84.2,55.8,38,30.18,10.0,Calm,Calm,-,N/A,,Scattered Clouds,0,2013-07-13 20:14:00
4:34 PM,84.2,55.8,38,30.18,10.0,East,8.1,-,N/A,,Clear,90,2013-07-13 20:34:00
4:54 PM,84.2,55.9,38,30.18,10.0,Calm,Calm,-,N/A,,Scattered Clouds,0,2013-07-13 20:54:00
5:14 PM,81.9,59.7,47,30.18,10.0,East,6.9,-,N/A,,Scattered Clouds,80,2013-07-13 21:14:00
5:34 PM,82.2,61.5,49,30.18,10.0,East,9.2,-,N/A,,Scattered Clouds,80,2013-07-13 21:34:00
5:54 PM,82.4,61.2,48,30.18,10.0,East,9.2,-,N/A,,Clear,90,2013-07-13 21:54:00
6:14 PM,82.4,61.3,49,30.18,10.0,ENE,10.4,-,N/A,,Clear,70,2013-07-13 22:14:00
6:34 PM,81.5,60.8,49,30.17,10.0,East,9.2,-,N/A,,Clear,90,2013-07-13 22:34:00
6:54 PM,81.1,62.1,52,30.18,10.0,ENE,9.2,-,N/A,,Clear,70,2013-07-13 22:54:00
7:14 PM,80.6,61.3,52,30.18,10.0,East,6.9,-,N/A,,Clear,80,2013-07-13 23:14:00
7:34 PM,80.6,63.0,55,30.18,10.0,East,8.1,-,N/A,,Clear,80,2013-07-13 23:34:00
7:54 PM,78.8,63.1,59,30.19,10.0,ENE,8.1,-,N/A,,Clear,70,2013-07-13 23:54:00
8:14 PM,77.7,63.0,60,30.19,10.0,ENE,4.6,-,N/A,,Clear,60,2013-07-14 00:14:00
8:34 PM,77.0,62.6,61,30.19,10.0,ENE,5.8,-,N/A,,Clear,70,2013-07-14 00:34:00
8:54 PM,73.9,62.1,66,30.19,10.0,ENE,3.5,-,N/A,,Clear,60,2013-07-14 00:54:00
9:14 PM,72.5,61.2,67,30.19,10.0,Calm,Calm,-,N/A,,Clear,0,2013-07-14 01:14:00
9:34 PM,70.5,61.7,74,30.19,10.0,Calm,Calm,-,N/A,,Clear,0,2013-07-14 01:34:00
9:54 PM,67.5,61.2,80,30.20,10.0,Calm,Calm,-,N/A,,Clear,0,2013-07-14 01:54:00
10:14 PM,67.1,60.8,80,30.20,10.0,Calm,Calm,-,N/A,,Clear,0,2013-07-14 02:14:00
10:34 PM,66.0,61.5,85,30.22,10.0,Calm,Calm,-,N/A,,Clear,0,2013-07-14 02:34:00
10:54 PM,64.6,61.7,90,30.22,10.0,Calm,Calm,-,N/A,,Clear,0,2013-07-14 02:54:00
11:14 PM,64.4,60.6,88,30.22,10.0,Calm,Calm,-,N/A,,Clear,0,2013-07-14 03:14:00
11:34 PM,63.5,61.0,91,30.22,10.0,Calm,Calm,-,N/A,,Clear,0,2013-07-14 03:34:00
11:54 PM,63.5,61.2,92,30.22,10.0,Calm,Calm,-,N/A,,Clear,0,2013-07-14 03:54:00